Flag for Colombia Weather past 2 weeks in Barranquilla, Colombia

Now
91 °F

Broken clouds.


Feels Like: 111 °F
Forecast: 79 / 89 °F
Wind: 12 mph from East

Location: Barranquilla / Ernestocortissoz

Current Time: Apr 26, 2015 at 1:16:48 PM

Latest Report: Apr 26, 2015 at 1:00 PM


Visibility: N/A

Pressure: 29.81 "Hg

Humidity: 71%

Dew point: 81 °F

Location of BarranquillaLocation

Historic Weather in Barranquilla — Graph

°F

Barranquilla temperature yesterday

Maximum temperature yesterday: 97 °F (at 12:00 PM)
Minimum temperature yesterday: 79 °F (at 1:00 AM)
Average temperature yesterday: 84 °F

Past Weeks' High & Low Weather Summary

 TemperatureHumidityPressure
High97 °F (Apr 25, 12:00 PM)100% (Apr 12, 5:00 AM)29.93 "Hg (Apr 12, 5:00 AM)
Low75 °F (Apr 20, 4:00 AM)56% (Apr 18, 1:00 PM)29.72 "Hg (Apr 19, 3:00 PM)
Average83 °F83%29.83 "Hg
* Reported Apr 11 12:00 Noon — Apr 26 12:00 Noon, Barranquilla, Weather by CustomWeather, © 2015

Note: Actual official high and low records may vary slightly from our data, if they occured in-between our weather recording intervals... More about our weather records

Advertising

Barranquilla weather history for previous 24 hours

 ConditionsComfort  
Time TempWeatherWind HumidityBarometerVisibility
12:00 PM
Sun, Apr 26
91 °FBroken clouds.7 mph63%29.85 "Hg5 mi
11:00 AM88 °FBroken clouds.6 mph75%29.84 "Hg5 mi
10:00 AM86 °FFog.8 mph79%29.86 "Hg5 mi
9:00 AM84 °FFog.3 mph89%29.87 "Hg3 mi
8:00 AM82 °FFog.3 mph94%29.85 "Hg2 mi
7:00 AM79 °FWarm.3 mph94%29.83 "HgN/A
6:00 AM79 °FFog.3 mph94%29.81 "Hg1 mi
5:00 AM79 °FPassing clouds.No wind94%29.80 "HgN/A
4:00 AM79 °FPassing clouds.No wind94%29.79 "HgN/A
3:00 AM79 °FPassing clouds.No wind94%29.79 "HgN/A
2:00 AM79 °FPassing clouds.5 mph94%29.80 "HgN/A
1:00 AM81 °FPassing clouds.7 mph89%29.80 "HgN/A
12:00 AM81 °FPassing clouds.7 mph89%29.83 "HgN/A
11:00 PM
Sat, Apr 25
81 °FPartly cloudy.3 mph89%29.85 "HgN/A
10:00 PM81 °FPartly cloudy.6 mph89%29.85 "HgN/A
9:00 PM81 °FPartly cloudy.7 mph84%29.83 "HgN/A
8:00 PM81 °FPartly cloudy.5 mph89%29.83 "HgN/A
7:00 PM81 °FPassing clouds.13 mph89%29.82 "HgN/A
6:00 PM82 °FScattered clouds.9 mph84%29.80 "HgN/A
5:00 PM84 °FPartly sunny.14 mph79%N/AN/A
4:00 PM88 °FBroken clouds.8 mph70%29.75 "HgN/A
3:00 PM90 °FBroken clouds.16 mph67%29.76 "HgN/A
2:00 PM91 °FBroken clouds.16 mph67%29.78 "HgN/A
1:00 PM93 °FScattered clouds.12 mph67%29.80 "HgN/A
Weather by CustomWeather, © 2015

See weather overviewHow to use our weather pages